Simultaneous Nadir Overpasses (SNOs) Predictions

Prediction of SNOs between GOES-16 and TERRA Satellite Orbit:

Table of predicted SNOs for the next 14.0 days since TLE Epoch: 12/2/2023
Index Date Time (GOES-16) GOES-16 Lat,Lon TERRA Lat,Lon Distance(km) Time Diff (sec)
1 12/02/2023 14:44:40 -0.04, -75.23 -0.86, -71.46 428.57 80
2 12/03/2023 03:04:51 0.04, -75.20 -0.24, -76.36 132.83 80
3 12/05/2023 02:45:26 0.03, -75.21 0.65, -72.32 328.78 80
4 12/05/2023 15:05:31 -0.03, -75.25 0.40, -77.20 222.34 80
5 12/07/2023 14:51:25 -0.03, -75.27 -0.47, -73.16 240.47 80
6 12/08/2023 03:11:38 0.03, -75.25 -0.54, -78.07 320.18 80
7 12/10/2023 02:52:11 0.02, -75.28 0.32, -74.02 143.33 80
8 12/10/2023 15:12:16 -0.02, -75.31 0.70, -78.91 407.61 80
9 12/12/2023 14:58:08 -0.02, -75.34 -0.14, -74.85 56.47 80
10 12/15/2023 03:01:31 0.00, -75.35 -0.07, -75.70 39.33 80
